, AK

(GMT )
Northway

Weather History for PAOR - June, 2013

Change the Weather History Date:

Friday, June 21, 2013

  Actual Average Record
Temperature  
Mean Temperature 66 °F -  
Max Temperature 78 °F 67 °F 88 °F (2004)
Min Temperature 55 °F 45 °F 34 °F (1978)
Cooling Degree Days 2    
Growing Degree Days 16 (Base 50)    
Moisture  
Dew Point 46 °F    
Average Humidity 56    
Maximum Humidity 96    
Minimum Humidity 24    
Precipitation  
Precipitation 0.00 in - - ()
Sea Level Pressure  
Sea Level Pressure 29.87 in    
Wind  
Wind Speed 4 mph (West)    
Max Wind Speed 12 mph    
Max Gust Speed 22 mph    
Visibility 10 miles    
Events      
Averages and records for this station are not official NWS values.
T = Trace of Precipitation, MM = Missing Value Source: NWS Daily Summary

Daily Weather History Graph

Daily Weather History Graph

Search for Another Location

Airport or City:

Trip Planner

Search our weather history database for the weather conditions in past years. The results will help you decide how hot, cold, wet, or windy it might be!

Date:

Astronomy

Jun. 21, 2013 Rise Set
Actual Time 3:20 AM AKDT 11:38 PM AKDT
Civil Twilight 2:01 AM AKDT 12:57 AM AKDT
Nautical Twilight Sun does not set Sun does not set
Astronomical Twilight Sun does not set Sun does not set
Moon 9:17 PM AKDT 2:34 AM AKDT
Length of Visible Light 22h 55m
Length of Day
20h 17m
Waxing Gibbous, 96% of the Moon is Illuminated
Jun 21
Waxing Gibbous
Jun 23
Full
Jun 29
Last Quarter
Jul 7
New
Jul 15
First Quarter

Hourly Weather History & Observations

Time (AKDT) Temp. Dew Point Humidity Pressure Visibility Wind Dir Wind Speed Gust Speed Precip Events Conditions
12:53 AM 55.9 °F 54.0 °F 93% 29.89 in 10.0 mi Calm Calm - 0.00 in   Mostly Cloudy
1:53 AM 55.9 °F 54.0 °F 93% 29.89 in 10.0 mi East 4.6 mph - N/A   Mostly Cloudy
2:37 AM 55.4 °F 53.6 °F 94% 29.90 in 10.0 mi Calm Calm - N/A   Mostly Cloudy
2:53 AM 55.0 °F 53.1 °F 93% 29.88 in 10.0 mi Calm Calm - N/A   Mostly Cloudy
3:53 AM 55.0 °F 53.1 °F 93% 29.87 in 10.0 mi ESE 3.5 mph - N/A   Mostly Cloudy
4:53 AM 55.0 °F 54.0 °F 96% 29.88 in 10.0 mi East 4.6 mph - N/A   Mostly Cloudy
5:53 AM 55.9 °F 53.1 °F 90% 29.89 in 10.0 mi ESE 3.5 mph - N/A   Mostly Cloudy
6:53 AM 57.0 °F 54.0 °F 89% 29.90 in 10.0 mi ESE 3.5 mph - N/A   Mostly Cloudy
7:53 AM 60.1 °F 53.1 °F 78% 29.90 in 10.0 mi Calm Calm - N/A   Overcast
8:53 AM 64.9 °F 44.1 °F 47% 29.90 in 10.0 mi WNW 9.2 mph 17.3 mph N/A   Partly Cloudy
9:53 AM 66.9 °F 42.1 °F 40% 29.89 in 10.0 mi WNW 8.1 mph 20.7 mph N/A   Clear
10:53 AM 70.0 °F 43.0 °F 38% 29.88 in 10.0 mi WNW 8.1 mph - N/A   Partly Cloudy
11:53 AM 71.1 °F 44.1 °F 38% 29.88 in 10.0 mi WSW 10.4 mph 20.7 mph N/A   Partly Cloudy
12:53 PM 73.0 °F 42.1 °F 33% 29.88 in 10.0 mi West 11.5 mph 21.9 mph N/A   Partly Cloudy
1:53 PM 73.9 °F 43.0 °F 33% 29.87 in 10.0 mi WNW 9.2 mph 21.9 mph N/A   Scattered Clouds
2:53 PM 75.0 °F 39.9 °F 28% 29.87 in 10.0 mi Variable 5.8 mph 20.7 mph N/A   Scattered Clouds
3:53 PM 75.0 °F 39.9 °F 28% 29.86 in 10.0 mi West 10.4 mph 18.4 mph N/A   Scattered Clouds
4:53 PM 78.1 °F 42.1 °F 28% 29.85 in 10.0 mi NW 9.2 mph - N/A   Scattered Clouds
5:53 PM 75.9 °F 37.0 °F 24% 29.84 in 10.0 mi Variable 6.9 mph 16.1 mph N/A   Mostly Cloudy
6:53 PM 73.0 °F 37.0 °F 27% 29.86 in 10.0 mi SW 6.9 mph - N/A   Mostly Cloudy
7:53 PM 72.0 °F 41.0 °F 33% 29.84 in 10.0 mi Calm Calm - N/A   Mostly Cloudy
8:53 PM 70.0 °F 39.9 °F 33% 29.84 in 10.0 mi West 3.5 mph - N/A   Clear
9:53 PM 66.0 °F 45.0 °F 47% 29.84 in 10.0 mi Calm Calm - N/A   Mostly Cloudy
10:53 PM 64.0 °F 46.0 °F 52% 29.85 in 10.0 mi Calm Calm - N/A   Mostly Cloudy
11:53 PM 57.9 °F 41.0 °F 53% 29.86 in 10.0 mi Calm Calm - N/A   Mostly Cloudy